Time,TemperatureF,DewpointF,PressureIn,WindDirection,WindDirectionDegrees,WindSpeedMPH,WindSpeedGustMPH,Humidity,HourlyPrecipIn,Conditions,Clouds,dailyrainin,SoftwareType,DateUTC
2013-08-19 00:11:00,68.0,62.0,30.08,North,360,0.0,0.0,80,0.00,,,0.00,,2013-08-19 05:11:00,
2013-08-19 00:22:00,68.0,62.0,30.08,North,360,0.0,0.0,80,0.00,,,0.00,,2013-08-19 05:22:00,
2013-08-19 00:52:00,68.0,62.0,30.08,North,360,0.0,0.0,82,0.00,,,0.00,,2013-08-19 05:52:00,
2013-08-19 01:11:00,67.0,62.0,30.08,North,360,0.0,0.0,83,0.00,,,0.00,,2013-08-19 06:11:00,
2013-08-19 01:21:00,67.0,62.0,30.08,North,360,0.0,0.0,83,0.00,,,0.00,,2013-08-19 06:21:00,
2013-08-19 01:52:00,67.0,62.0,30.08,North,360,0.0,0.0,84,0.00,,,0.00,,2013-08-19 06:52:00,
2013-08-19 02:11:00,67.0,62.0,30.08,North,360,0.0,0.0,84,0.00,,,0.00,,2013-08-19 07:11:00,
2013-08-19 02:21:00,67.0,62.0,30.08,North,360,0.0,0.0,84,0.00,,,0.00,,2013-08-19 07:21:00,
2013-08-19 02:52:00,66.0,61.0,30.06,ESE,119,0.0,2.0,85,0.00,,,0.00,,2013-08-19 07:52:00,
2013-08-19 03:11:00,66.0,62.0,30.05,ESE,119,0.0,1.0,86,0.00,,,0.00,,2013-08-19 08:11:00,
2013-08-19 03:21:00,66.0,62.0,30.05,ESE,119,0.0,1.0,86,0.00,,,0.00,,2013-08-19 08:21:00,
2013-08-19 03:52:00,66.0,62.0,30.04,ESE,119,1.0,2.0,86,0.00,,,0.00,,2013-08-19 08:52:00,
2013-08-19 04:11:00,66.0,62.0,30.04,ESE,121,0.0,1.0,87,0.00,,,0.00,,2013-08-19 09:11:00,
2013-08-19 04:22:00,66.0,62.0,30.04,ESE,121,0.0,1.0,87,0.00,,,0.00,,2013-08-19 09:22:00,
2013-08-19 04:53:00,66.0,62.0,30.04,North,360,0.0,0.0,87,0.00,,,0.00,,2013-08-19 09:53:00,
2013-08-19 05:12:00,66.0,62.0,30.04,ESE,120,1.0,2.0,87,0.00,,,0.00,,2013-08-19 10:12:00,
2013-08-19 05:23:00,66.0,62.0,30.04,ESE,120,1.0,2.0,87,0.00,,,0.00,,2013-08-19 10:23:00,
2013-08-19 05:52:00,66.0,62.0,30.04,ESE,120,0.0,1.0,88,0.00,,,0.00,,2013-08-19 10:52:00,
2013-08-19 06:12:00,66.0,62.0,30.05,ESE,121,1.0,1.0,88,0.00,,,0.00,,2013-08-19 11:12:00,
2013-08-19 06:22:00,66.0,62.0,30.05,ESE,121,1.0,1.0,88,0.00,,,0.00,,2013-08-19 11:22:00,
2013-08-19 06:52:00,66.0,62.0,30.06,North,360,0.0,2.0,88,0.00,,,0.00,,2013-08-19 11:52:00,
2013-08-19 07:11:00,66.0,63.0,30.06,North,360,0.0,1.0,89,0.00,,,0.00,,2013-08-19 12:11:00,
2013-08-19 07:21:00,66.0,63.0,30.06,North,360,0.0,1.0,89,0.00,,,0.00,,2013-08-19 12:21:00,
2013-08-19 07:52:00,65.0,62.0,30.07,SE,126,1.0,1.0,89,0.00,,,0.00,,2013-08-19 12:52:00,
2013-08-19 08:13:00,67.0,64.0,30.07,SE,127,2.0,2.0,89,0.00,,,0.00,,2013-08-19 13:13:00,
2013-08-19 08:22:00,67.0,64.0,30.07,SE,127,2.0,2.0,89,0.00,,,0.00,,2013-08-19 13:22:00,
2013-08-19 08:52:00,68.0,64.0,30.07,ESE,119,2.0,2.0,87,0.00,,,0.00,,2013-08-19 13:52:00,
2013-08-19 09:11:00,69.0,64.0,30.07,ESE,111,1.0,3.0,84,0.00,,,0.00,,2013-08-19 14:11:00,
2013-08-19 09:21:00,69.0,64.0,30.07,ESE,111,1.0,3.0,84,0.00,,,0.00,,2013-08-19 14:21:00,
2013-08-19 09:52:00,71.0,65.0,30.07,ESE,107,1.0,1.0,82,0.00,,,0.00,,2013-08-19 14:52:00,
2013-08-19 10:11:00,74.0,66.0,30.07,ESE,108,3.0,3.0,77,0.00,,,0.00,,2013-08-19 15:11:00,
2013-08-19 10:22:00,74.0,66.0,30.07,ESE,108,3.0,3.0,77,0.00,,,0.00,,2013-08-19 15:22:00,
2013-08-19 10:54:00,76.0,67.0,30.07,East,87,2.0,2.0,73,0.00,,,0.00,,2013-08-19 15:54:00,
2013-08-19 11:13:00,78.0,66.0,30.08,SSE,147,1.0,4.0,66,0.00,,,0.00,,2013-08-19 16:13:00,
2013-08-19 11:23:00,78.0,66.0,30.08,SSE,147,1.0,4.0,66,0.00,,,0.00,,2013-08-19 16:23:00,
2013-08-19 12:12:00,81.0,66.0,30.07,ESE,117,3.0,6.0,61,0.00,,,0.00,,2013-08-19 17:12:00,
2013-08-19 12:30:00,81.0,-99.9,30.07,ESE,117,3.0,6.0,61,0.00,,,0.00,,2013-08-19 17:30:00,
2013-08-19 12:57:00,81.0,64.0,30.06,SE,125,4.0,4.0,56,0.00,,,0.00,,2013-08-19 17:57:00,
2013-08-19 13:19:00,82.0,66.0,30.06,ESE,117,4.0,4.0,58,0.00,,,0.00,,2013-08-19 18:19:00,
2013-08-19 13:28:00,82.0,66.0,30.06,ESE,117,4.0,4.0,58,0.00,,,0.00,,2013-08-19 18:28:00,
2013-08-19 13:50:00,-999.0,-99.9,30.05,SSW,213,3.0,3.0,57,0.00,,,0.00,,2013-08-19 18:50:00,
2013-08-19 14:00:00,-999.0,-99.9,30.05,SSW,213,3.0,3.0,57,0.00,,,0.00,,2013-08-19 19:00:00,
2013-08-19 14:16:00,83.0,65.0,30.04,SE,136,3.0,3.0,54,0.00,,,0.00,,2013-08-19 19:16:00,
2013-08-19 14:30:00,-999.0,-99.9,30.04,SE,136,3.0,3.0,54,0.00,,,0.00,,2013-08-19 19:30:00,
2013-08-19 14:59:00,84.0,66.0,30.03,ESE,118,4.0,7.0,54,0.00,,,0.00,,2013-08-19 19:59:00,
2013-08-19 15:20:00,84.0,66.0,30.02,SSW,198,2.0,3.0,55,0.00,,,0.00,,2013-08-19 20:20:00,
2013-08-19 15:30:00,84.0,-99.9,30.02,SSW,198,2.0,3.0,55,0.00,,,0.00,,2013-08-19 20:30:00,
2013-08-19 16:00:00,-999.0,-99.9,30.01,SE,130,1.0,3.0,-999,-99.99,,,-99.99,,2013-08-19 21:00:00,
2013-08-19 16:16:00,85.0,64.0,30.01,ESE,113,3.0,3.0,50,0.00,,,0.00,,2013-08-19 21:16:00,
2013-08-19 16:25:00,85.0,64.0,30.01,ESE,113,3.0,3.0,50,0.00,,,0.00,,2013-08-19 21:25:00,
2013-08-19 16:55:00,84.0,64.0,29.99,ESE,109,2.0,4.0,51,0.00,,,0.00,,2013-08-19 21:55:00,
2013-08-19 17:25:00,84.0,64.0,29.99,SE,146,3.0,3.0,51,0.00,,,0.00,,2013-08-19 22:25:00,
2013-08-19 17:55:00,83.0,65.0,29.98,SE,143,2.0,3.0,54,0.00,,,0.00,,2013-08-19 22:55:00,
2013-08-19 18:15:00,82.0,64.0,29.98,SE,133,2.0,3.0,55,0.00,,,0.00,,2013-08-19 23:15:00,
2013-08-19 18:25:00,82.0,64.0,29.98,SE,133,2.0,3.0,55,0.00,,,0.00,,2013-08-19 23:25:00,
2013-08-19 18:48:00,82.0,65.0,29.98,South,172,3.0,3.0,56,0.00,,,0.00,,2013-08-19 23:48:00,
2013-08-19 18:55:00,82.0,65.0,29.98,South,172,3.0,3.0,56,0.00,,,0.00,,2013-08-19 23:55:00,
2013-08-19 19:24:00,82.0,65.0,29.97,ESE,121,1.0,3.0,57,0.00,,,0.00,,2013-08-20 00:24:00,
2013-08-19 19:52:00,81.0,65.0,29.97,SE,124,0.0,2.0,58,0.00,,,0.00,,2013-08-20 00:52:00,
2013-08-19 20:11:00,80.0,64.0,29.98,NE,34,1.0,2.0,59,0.00,,,0.00,,2013-08-20 01:11:00,
2013-08-19 20:22:00,80.0,64.0,29.98,NE,34,1.0,2.0,59,0.00,,,0.00,,2013-08-20 01:22:00,
2013-08-19 20:52:00,79.0,64.0,29.96,North,360,0.0,0.0,61,0.00,,,0.00,,2013-08-20 01:52:00,
2013-08-19 21:11:00,78.0,65.0,29.98,ENE,76,0.0,2.0,64,0.00,,,0.00,,2013-08-20 02:11:00,
2013-08-19 21:21:00,78.0,65.0,29.98,ENE,76,0.0,2.0,64,0.00,,,0.00,,2013-08-20 02:21:00,
2013-08-19 21:52:00,76.0,64.0,29.98,ENE,73,1.0,1.0,67,0.00,,,0.00,,2013-08-20 02:52:00,
2013-08-19 22:11:00,75.0,65.0,30.00,North,360,0.0,0.0,70,0.00,,,0.00,,2013-08-20 03:11:00,
2013-08-19 22:22:00,75.0,65.0,30.00,North,360,0.0,0.0,70,0.00,,,0.00,,2013-08-20 03:22:00,
2013-08-19 22:54:00,74.0,65.0,30.00,ENE,76,0.0,0.0,73,0.00,,,0.00,,2013-08-20 03:54:00,
2013-08-19 23:13:00,73.0,65.0,29.99,North,360,0.0,0.0,75,0.00,,,0.00,,2013-08-20 04:13:00,
2013-08-19 23:23:00,73.0,65.0,29.99,North,360,0.0,0.0,75,0.00,,,0.00,,2013-08-20 04:23:00,
2013-08-19 23:53:00,73.0,65.0,30.00,ENE,74,1.0,1.0,76,0.00,,,0.00,,2013-08-20 04:53:00,